Change the Weather History Date:

Thursday, October 3, 2013

  Actual Average Record
Temperature  
Mean Temperature 73 °F -  
Max Temperature 83 °F 74 °F 90 °F (2006)
Min Temperature 64 °F 54 °F 35 °F (2003)
Cooling Degree Days 8    
Growing Degree Days 23 (Base 50)    
Moisture  
Dew Point 66 °F    
Average Humidity 92    
Maximum Humidity 100    
Minimum Humidity 56    
Precipitation  
Precipitation 1.80 in - - ()
Sea Level Pressure  
Sea Level Pressure 29.95 in    
Wind  
Wind Speed 11 mph (SSW)    
Max Wind Speed 31 mph    
Max Gust Speed 41 mph    
Visibility 5 miles    
Events Rain , Thunderstorm    
Averages and records for this station are not official NWS values.
T = Trace of Precipitation, MM = Missing Value Source: NWS Daily Summary

Daily Weather History Graph

Daily Weather History Graph

Search for Another Location

Airport or City:

Trip Planner

Search our weather history database for the weather conditions in past years. The results will help you decide how hot, cold, wet, or windy it might be!

Date:

Astronomy

Oct. 03, 2013 Rise Set
Actual Time 6:54 AM CDT 6:34 PM CDT
Civil Twilight 6:27 AM CDT 7:01 PM CDT
Nautical Twilight 5:55 AM CDT 7:32 PM CDT
Astronomical Twilight 5:23 AM CDT 8:04 PM CDT
Moon 5:27 AM CDT (10/3) 5:42 PM CDT (10/3)
Length of Visible Light 12h 34m
Length of Day
11h 39m
Waning Crescent, 2% of the Moon is Illuminated
Oct 3
Waning Crescent
Oct 4
New
Oct 11
First Quarter
Oct 18
Full
Oct 26
Last Quarter

Hourly Weather History & Observations

Time (CDT) Temp. Heat Index Dew Point Humidity Pressure Visibility Wind Dir Wind Speed Gust Speed Precip Events Conditions
12:56 AM 66.9 °F - 66.9 °F 100% 29.97 in 2.5 mi South 8.1 mph - N/A   Mostly Cloudy
1:06 AM 66.2 °F - 66.2 °F 100% 29.99 in 2.5 mi South 9.2 mph - N/A   Scattered Clouds
1:13 AM 66.2 °F - 66.2 °F 100% 29.99 in 2.5 mi South 8.1 mph - N/A   Mostly Cloudy
1:21 AM 66.2 °F - 66.2 °F 100% 29.99 in 2.5 mi South 9.2 mph - N/A   Scattered Clouds
1:30 AM 66.2 °F - 66.2 °F 100% 29.99 in 2.5 mi South 8.1 mph - N/A   Mostly Cloudy
1:43 AM 66.2 °F - 66.2 °F 100% 29.99 in 2.5 mi SSW 8.1 mph - N/A   Scattered Clouds
1:56 AM 66.9 °F - 66.9 °F 100% 29.96 in 2.5 mi South 8.1 mph - N/A   Partly Cloudy
2:20 AM 66.2 °F - 66.2 °F 100% 29.99 in 2.5 mi SSW 8.1 mph - N/A   Mostly Cloudy
2:37 AM 66.2 °F - 66.2 °F 100% 29.98 in 2.5 mi South 9.2 mph - N/A   Mostly Cloudy
2:56 AM 66.9 °F - 66.9 °F 100% 29.95 in 3.0 mi South 9.2 mph - N/A   Mostly Cloudy
3:06 AM 66.2 °F - 66.2 °F 100% 29.98 in 3.0 mi SSW 8.1 mph - N/A   Mostly Cloudy
3:56 AM 68.0 °F - 68.0 °F 100% 29.95 in 4.0 mi South 10.4 mph - N/A   Overcast
4:38 AM 68.0 °F - 68.0 °F 100% 29.98 in 4.0 mi South 10.4 mph - 0.00 in   Overcast
4:56 AM 68.0 °F - 68.0 °F 100% 29.94 in 4.0 mi South 9.2 mph - 0.00 in   Overcast
5:28 AM 69.8 °F - 69.8 °F 100% 29.97 in 1.8 mi South 13.8 mph - 0.06 in Rain Heavy Rain
5:39 AM 69.8 °F - 69.8 °F 100% 29.97 in 3.0 mi SSW 12.7 mph - 0.08 in Rain Light Rain
5:56 AM 68.9 °F - 68.9 °F 100% 29.94 in 6.0 mi SSW 10.4 mph - 0.08 in   Overcast
6:56 AM 68.9 °F - 68.9 °F 100% 29.95 in 6.0 mi SSW 11.5 mph - N/A   Overcast
7:56 AM 68.9 °F - 68.0 °F 97% 29.96 in 5.0 mi SSW 16.1 mph - 0.01 in Rain Light Rain
8:56 AM 68.9 °F - 68.0 °F 97% 29.96 in 2.0 mi SSW 12.7 mph - 0.07 in Rain Light Rain
8:58 AM 69.8 °F - 68.0 °F 94% 29.99 in 5.0 mi SSW 15.0 mph - 0.03 in Rain Light Rain
9:56 AM 70.0 °F - 68.0 °F 93% 29.97 in 10.0 mi SSW 12.7 mph - 0.07 in   Overcast
10:56 AM 73.9 °F - 68.9 °F 84% 29.96 in 10.0 mi SSW 12.7 mph - N/A   Mostly Cloudy
11:56 AM 77.9 °F - 68.9 °F 74% 29.94 in 10.0 mi SW 11.5 mph - N/A   Mostly Cloudy
12:56 PM 81.9 °F 84.8 °F 68.0 °F 63% 29.91 in 10.0 mi SSW 13.8 mph - N/A   Mostly Cloudy
1:56 PM 82.9 °F 85.0 °F 65.8 °F 56% 29.88 in 10.0 mi SSW 18.4 mph 21.9 mph N/A   Mostly Cloudy
2:41 PM 78.8 °F - 64.4 °F 61% 29.94 in 10.0 mi WSW 31.1 mph 41.4 mph N/A Thunderstorm Mostly Cloudy
2:42 PM 77.0 °F - 66.2 °F 69% 29.94 in 0.5 mi West 28.8 mph 41.4 mph 0.00 in Rain , Thunderstorm Light Thunderstorms and Rain
2:43 PM 75.2 °F - 66.2 °F 73% 29.94 in 0.5 mi West 25.3 mph 41.4 mph 0.00 in Rain , Thunderstorm Thunderstorms and Rain
2:56 PM 66.9 °F - 65.8 °F 96% 29.92 in 0.5 mi WSW 10.4 mph 33.4 mph 0.61 in Rain , Thunderstorm Heavy Thunderstorms and Rain
3:03 PM 66.2 °F - 64.4 °F 94% 29.94 in 6.0 mi South 6.9 mph - 0.00 in Rain , Thunderstorm Light Thunderstorms and Rain
3:39 PM 68.0 °F - 66.2 °F 94% 29.90 in 10.0 mi SSW 3.5 mph - 0.01 in   Partly Cloudy
3:56 PM 70.0 °F - 66.9 °F 90% 29.88 in 7.0 mi SE 4.6 mph - 0.01 in   Partly Cloudy
4:56 PM 73.9 °F - 64.9 °F 73% 29.87 in 10.0 mi SSE 3.5 mph - N/A   Partly Cloudy
5:56 PM 72.9 °F - 65.8 °F 79% 29.86 in 5.0 mi SSE 8.1 mph - N/A   Haze
6:32 PM 71.6 °F - 64.4 °F 78% 29.93 in 10.0 mi West 21.9 mph 38.0 mph 0.00 in Rain , Thunderstorm Light Thunderstorms and Rain
6:49 PM 66.2 °F - 64.4 °F 94% 29.92 in 1.8 mi NW 20.7 mph 34.5 mph 0.05 in Rain , Thunderstorm Thunderstorms and Rain
6:56 PM 66.9 °F - 64.9 °F 93% 29.89 in 2.5 mi NW 19.6 mph - 0.12 in Rain , Thunderstorm Thunderstorms and Rain
6:58 PM 66.2 °F - 64.4 °F 94% 29.91 in 2.0 mi NW 18.4 mph - 0.01 in Rain , Thunderstorm Thunderstorms and Rain
7:01 PM 66.2 °F - 64.4 °F 94% 29.92 in 1.8 mi WNW 12.7 mph 23.0 mph 0.03 in Rain , Thunderstorm Thunderstorms and Rain
7:08 PM 66.2 °F - 64.4 °F 94% 29.92 in 2.5 mi West 19.6 mph - 0.22 in Rain , Thunderstorm Thunderstorms and Rain
7:37 PM 66.2 °F - 64.4 °F 94% 29.96 in 4.0 mi SW 10.4 mph - 0.64 in Rain Light Rain
7:44 PM 66.2 °F - 64.4 °F 94% 29.96 in 4.0 mi SW 9.2 mph - 0.66 in Rain , Thunderstorm Light Thunderstorms and Rain
7:56 PM 65.8 °F - 64.9 °F 97% 29.94 in 4.0 mi SW 12.7 mph - 0.70 in Rain , Thunderstorm Light Thunderstorms and Rain
8:00 PM 66.2 °F - 64.4 °F 94% 29.96 in 4.0 mi SW 11.5 mph - 0.02 in Rain , Thunderstorm Light Thunderstorms and Rain
8:56 PM 64.9 °F - 64.9 °F 100% 29.94 in 8.0 mi South 11.5 mph - 0.13 in Rain Light Rain
9:56 PM 64.9 °F - 63.9 °F 96% 29.95 in 10.0 mi SSW 9.2 mph - 0.00 in   Clear
11:56 PM 64.9 °F - 61.9 °F 90% 29.94 in 10.0 mi South 9.2 mph - N/A   Clear